TimeMDT,TemperatureF,Dew PointF,Humidity,Sea Level PressureIn,VisibilityMPH,Wind Direction,Wind SpeedMPH,Gust SpeedMPH,PrecipitationIn,Events,Conditions,WindDirDegrees,DateUTC
12:15 AM,45.9,33.8,63,30.00,10.0,NNW,15.0,-,N/A,,Scattered Clouds,330,2013-05-21 06:15:00
12:35 AM,45.7,34.0,64,30.00,10.0,NNW,18.4,21.9,N/A,,Clear,330,2013-05-21 06:35:00
12:55 AM,46.0,34.7,65,30.01,10.0,NNW,17.3,20.7,N/A,,Mostly Cloudy,330,2013-05-21 06:55:00
1:15 AM,45.5,34.7,66,30.01,10.0,NNW,15.0,-,N/A,,Mostly Cloudy,330,2013-05-21 07:15:00
1:35 AM,45.5,34.7,66,30.01,10.0,NNW,15.0,20.7,N/A,,Mostly Cloudy,330,2013-05-21 07:35:00
1:55 AM,45.7,34.9,66,30.01,10.0,NNW,16.1,21.9,N/A,,Mostly Cloudy,330,2013-05-21 07:55:00
2:15 AM,45.7,35.4,67,30.00,10.0,NW,15.0,-,N/A,,Mostly Cloudy,320,2013-05-21 08:15:00
2:35 AM,46.4,35.6,66,30.00,10.0,NNW,16.1,-,N/A,,Overcast,330,2013-05-21 08:35:00
2:55 AM,46.6,35.6,66,30.00,10.0,NNW,16.1,-,N/A,,Overcast,330,2013-05-21 08:55:00
3:15 AM,46.9,35.6,65,30.00,10.0,NW,21.9,27.6,N/A,,Mostly Cloudy,320,2013-05-21 09:15:00
3:35 AM,47.1,35.6,64,30.00,10.0,NW,17.3,-,N/A,,Overcast,320,2013-05-21 09:35:00
3:55 AM,46.4,35.8,67,30.00,10.0,NNW,18.4,-,N/A,,Mostly Cloudy,330,2013-05-21 09:55:00
4:15 AM,45.5,36.0,69,30.01,10.0,NNW,16.1,21.9,N/A,,Scattered Clouds,330,2013-05-21 10:15:00
4:35 AM,45.1,36.5,72,30.01,10.0,NNW,17.3,-,N/A,,Mostly Cloudy,330,2013-05-21 10:35:00
4:55 AM,45.0,36.5,72,30.01,10.0,North,-9999.0,-,N/A,,Mostly Cloudy,0,2013-05-21 10:55:00
5:15 AM,44.1,36.3,74,30.01,10.0,NW,12.7,-,N/A,,Scattered Clouds,320,2013-05-21 11:15:00
5:35 AM,43.5,36.1,75,30.02,10.0,NW,11.5,-,N/A,,Clear,310,2013-05-21 11:35:00
5:55 AM,44.2,36.5,74,30.03,10.0,NW,13.8,-,N/A,,Clear,310,2013-05-21 11:55:00
6:15 AM,44.2,36.5,74,30.04,10.0,NW,11.5,-,N/A,,Clear,310,2013-05-21 12:15:00
6:35 AM,46.6,37.2,70,30.04,10.0,NW,12.7,-,N/A,,Clear,310,2013-05-21 12:35:00
6:55 AM,48.2,37.4,66,30.04,10.0,NW,11.5,-,N/A,,Clear,310,2013-05-21 12:55:00
7:15 AM,49.6,37.2,62,30.04,10.0,WNW,12.7,-,N/A,,Scattered Clouds,300,2013-05-21 13:15:00
7:35 AM,51.4,36.9,58,30.04,10.0,NW,13.8,17.3,N/A,,Mostly Cloudy,310,2013-05-21 13:35:00
7:55 AM,52.7,35.2,52,30.04,10.0,NW,17.3,24.2,N/A,,Clear,310,2013-05-21 13:55:00
8:15 AM,53.6,34.9,49,30.04,10.0,WNW,19.6,26.5,N/A,,Clear,300,2013-05-21 14:15:00
8:35 AM,55.4,34.9,46,30.04,10.0,WNW,23.0,29.9,N/A,,Clear,300,2013-05-21 14:35:00
8:55 AM,55.6,33.8,44,30.03,10.0,NW,21.9,28.8,N/A,,Clear,320,2013-05-21 14:55:00
9:15 AM,57.6,34.0,41,30.03,10.0,NW,23.0,27.6,N/A,,Clear,320,2013-05-21 15:15:00
9:35 AM,57.9,32.2,38,30.02,10.0,NW,25.3,31.1,N/A,,Clear,310,2013-05-21 15:35:00
9:55 AM,59.2,30.9,34,30.02,10.0,NW,23.0,28.8,N/A,,Clear,310,2013-05-21 15:55:00
10:15 AM,59.9,30.4,33,30.00,10.0,WNW,26.5,29.9,N/A,,Clear,300,2013-05-21 16:15:00
10:35 AM,60.6,29.8,31,30.00,10.0,WNW,24.2,29.9,N/A,,Clear,300,2013-05-21 16:35:00
10:55 AM,61.9,30.4,31,30.00,10.0,NW,20.7,26.5,N/A,,Clear,320,2013-05-21 16:55:00
11:15 AM,62.4,29.7,29,29.99,10.0,NW,17.3,25.3,N/A,,Clear,310,2013-05-21 17:15:00
11:35 AM,63.3,28.2,27,29.98,10.0,NW,17.3,31.1,N/A,,Clear,320,2013-05-21 17:35:00
11:55 AM,65.1,29.1,26,29.96,10.0,NW,20.7,29.9,N/A,,Clear,320,2013-05-21 17:55:00
12:15 PM,65.3,26.8,23,29.96,10.0,NW,21.9,32.2,N/A,,Clear,320,2013-05-21 18:15:00
12:35 PM,66.2,27.0,23,29.95,10.0,NNW,25.3,33.4,N/A,,Clear,330,2013-05-21 18:35:00
12:55 PM,66.9,26.8,22,29.93,10.0,NNW,21.9,32.2,N/A,,Clear,340,2013-05-21 18:55:00
1:15 PM,66.9,28.6,24,29.92,10.0,NNW,23.0,34.5,N/A,,Scattered Clouds,330,2013-05-21 19:15:00
1:35 PM,67.8,29.7,24,29.92,10.0,NW,20.7,32.2,N/A,,Scattered Clouds,320,2013-05-21 19:35:00
1:55 PM,69.1,28.9,22,29.91,10.0,NW,26.5,-,N/A,,Scattered Clouds,310,2013-05-21 19:55:00
2:15 PM,68.5,26.2,20,29.91,10.0,NW,21.9,31.1,N/A,,Scattered Clouds,320,2013-05-21 20:15:00
2:35 PM,69.4,27.9,21,29.90,10.0,NNW,26.5,34.5,N/A,,Clear,330,2013-05-21 20:35:00
2:55 PM,70.0,27.5,20,29.89,10.0,NW,24.2,32.2,N/A,,Scattered Clouds,310,2013-05-21 20:55:00
3:15 PM,70.3,26.1,19,29.89,10.0,NNW,27.6,34.5,N/A,,Scattered Clouds,340,2013-05-21 21:15:00
3:35 PM,70.0,27.1,20,29.89,10.0,NNW,25.3,33.4,N/A,,Scattered Clouds,340,2013-05-21 21:35:00
3:55 PM,70.2,26.4,19,29.88,10.0,NNW,20.7,33.4,N/A,,Scattered Clouds,340,2013-05-21 21:55:00
4:15 PM,68.7,26.2,20,29.88,10.0,NNW,24.2,29.9,N/A,,Scattered Clouds,340,2013-05-21 22:15:00
4:35 PM,68.2,26.6,21,29.88,10.0,NNW,19.6,31.1,N/A,,Scattered Clouds,340,2013-05-21 22:35:00
4:55 PM,67.8,26.1,21,29.88,10.0,NNW,19.6,28.8,N/A,,Mostly Cloudy,340,2013-05-21 22:55:00
5:15 PM,68.0,27.3,22,29.88,10.0,North,17.3,28.8,N/A,,Overcast,360,2013-05-21 23:15:00
5:35 PM,67.5,28.2,23,29.88,10.0,North,19.6,23.0,N/A,,Overcast,350,2013-05-21 23:35:00
5:55 PM,66.6,28.8,24,29.88,10.0,North,15.0,-,N/A,,Mostly Cloudy,360,2013-05-21 23:55:00
6:15 PM,67.6,29.1,24,29.88,10.0,North,15.0,21.9,N/A,,Mostly Cloudy,10,2013-05-22 00:15:00
6:35 PM,66.0,29.3,25,29.88,10.0,North,17.3,-,N/A,,Overcast,10,2013-05-22 00:35:00
6:55 PM,64.4,30.2,28,29.89,10.0,North,21.9,28.8,N/A,,Scattered Clouds,10,2013-05-22 00:55:00
7:15 PM,63.0,30.2,29,29.90,10.0,North,20.7,-,N/A,,Clear,10,2013-05-22 01:15:00
7:35 PM,61.2,30.7,32,29.90,10.0,NNE,16.1,20.7,N/A,,Clear,30,2013-05-22 01:35:00
7:55 PM,59.0,30.7,34,29.91,10.0,NE,15.0,-,N/A,,Scattered Clouds,40,2013-05-22 01:55:00
8:15 PM,56.3,33.3,42,29.93,10.0,ENE,9.2,-,N/A,,Scattered Clouds,60,2013-05-22 02:15:00
8:35 PM,53.1,34.2,49,29.95,10.0,East,6.9,-,N/A,,Mostly Cloudy,80,2013-05-22 02:35:00
8:55 PM,52.0,34.3,51,29.95,10.0,East,8.1,-,N/A,,Mostly Cloudy,90,2013-05-22 02:55:00
9:15 PM,50.2,34.2,54,29.96,10.0,ENE,6.9,-,N/A,,Scattered Clouds,70,2013-05-22 03:15:00
9:35 PM,49.3,34.0,56,29.97,10.0,ENE,8.1,-,N/A,,Scattered Clouds,70,2013-05-22 03:35:00
9:55 PM,47.3,33.8,59,29.98,10.0,East,6.9,-,N/A,,Clear,80,2013-05-22 03:55:00
10:15 PM,46.6,33.8,61,29.99,10.0,East,6.9,-,N/A,,Clear,80,2013-05-22 04:15:00
10:35 PM,44.8,33.6,65,29.99,10.0,ENE,5.8,-,N/A,,Clear,70,2013-05-22 04:35:00
10:55 PM,44.2,33.8,67,29.99,10.0,ENE,4.6,-,N/A,,Clear,60,2013-05-22 04:55:00
11:15 PM,45.3,34.2,65,30.00,10.0,Calm,Calm,-,N/A,,Clear,0,2013-05-22 05:15:00
11:35 PM,46.0,35.2,66,30.00,10.0,SE,5.8,-,N/A,,Clear,140,2013-05-22 05:35:00
11:55 PM,45.0,35.1,68,30.01,10.0,SSW,3.5,-,N/A,,Clear,200,2013-05-22 05:55:00